• In Lithuania
  • List of Countries
  • For 7 days
  • Water Temperature
  • Satellite Maps
  • Weather Map
  • Weather Widgets
  • user-avatar
    Login

    Hourly Weather Varna

    Today, 20 October, Saturday

    Time Temperature Precipitation Wind Pressure Humidity
    00:00 +16°C° 0 mm 1 mps 748 mmHg 82%
    01:00 +15°C° 0 mm 1 mps 748 mmHg 81%
    02:00 +15°C° 0 mm 2 mps 748 mmHg 81%
    03:00 +15°C° 0 mm 2 mps 748 mmHg 81%
    04:00 +14°C° 0 mm 2 mps 748 mmHg 81%
    05:00 +13°C° 0 mm 3 mps 748 mmHg 81%
    06:00 +13°C° 0 mm 3 mps 748 mmHg 78%
    07:00 +14°C° 0 mm 3 mps 748 mmHg 75%
    08:00 +14°C° 0 mm 3 mps 748 mmHg 72%
    09:00 +17°C° 0 mm 3 mps 748 mmHg 65%
    10:00 +18°C° 0 mm 4 mps 749 mmHg 59%
    11:00 +19°C° 0 mm 4 mps 749 mmHg 52%
    12:00 +20°C° 0.1 mm 4 mps 749 mmHg 51%
    13:00 +20°C° 0.1 mm 4 mps 748 mmHg 50%
    14:00 +20°C° 0.1 mm 4 mps 748 mmHg 48%
    15:00 +19°C° 0 mm 4 mps 748 mmHg 52%
    16:00 +19°C° 0 mm 3 mps 748 mmHg 55%
    17:00 +18°C° 0 mm 3 mps 748 mmHg 59%
    18:00 +17°C° 0.1 mm 3 mps 748 mmHg 63%
    19:00 +15°C° 0.1 mm 4 mps 748 mmHg 67%
    20:00 +15°C° 0.1 mm 4 mps 748 mmHg 71%
    21:00 +15°C° 0 mm 4 mps 748 mmHg 72%
    22:00 +14°C° 0 mm 5 mps 748 mmHg 73%
    23:00 +14°C° 0 mm 5 mps 748 mmHg 74%

    Tomorrow, 21 October, Sunday

    Time Temperature Precipitation Wind Pressure Humidity
    00:00 +14°C° 0 mm 5 mps 748 mmHg 76%
    01:00 +13°C° 0 mm 5 mps 748 mmHg 77%
    02:00 +13°C° 0 mm 5 mps 748 mmHg 79%
    03:00 +12°C° 0 mm 5 mps 748 mmHg 80%
    04:00 +12°C° 0 mm 5 mps 747 mmHg 82%
    05:00 +12°C° 0 mm 5 mps 747 mmHg 83%
    06:00 +12°C° 0 mm 5 mps 748 mmHg 82%
    07:00 +12°C° 0 mm 5 mps 748 mmHg 80%
    08:00 +13°C° 0 mm 5 mps 748 mmHg 79%
    09:00 +14°C° 0 mm 4 mps 748 mmHg 72%
    10:00 +17°C° 0 mm 4 mps 748 mmHg 64%
    11:00 +19°C° 0 mm 4 mps 748 mmHg 57%
    12:00 +19°C° 0 mm 4 mps 748 mmHg 54%
    13:00 +20°C° 0 mm 4 mps 748 mmHg 52%
    14:00 +21°C° 0 mm 4 mps 747 mmHg 49%
    15:00 +20°C° 0 mm 3 mps 747 mmHg 52%
    16:00 +19°C° 0 mm 3 mps 747 mmHg 55%
    17:00 +18°C° 0 mm 3 mps 747 mmHg 58%
    18:00 +17°C° 0 mm 3 mps 748 mmHg 62%
    19:00 +17°C° 0 mm 2 mps 748 mmHg 66%
    20:00 +16°C° 0 mm 2 mps 748 mmHg 70%
    21:00 +15°C° 0 mm 2 mps 748 mmHg 72%
    22:00 +15°C° 0 mm 2 mps 749 mmHg 74%
    23:00 +15°C° 0 mm 2 mps 749 mmHg 77%

    Day after tomorrow, 22 October, Monday

    Time Temperature Precipitation Wind Pressure Humidity
    00:00 +13°C° 0 mm 3 mps 749 mmHg 78%
    01:00 +13°C° 0 mm 3 mps 749 mmHg 79%
    02:00 +13°C° 0 mm 3 mps 749 mmHg 80%
    03:00 +12°C° 0 mm 4 mps 749 mmHg 80%
    04:00 +12°C° 0 mm 4 mps 749 mmHg 81%
    05:00 +12°C° 0 mm 5 mps 749 mmHg 82%
    06:00 +12°C° 0 mm 5 mps 749 mmHg 80%
    07:00 +11°C° 0 mm 6 mps 749 mmHg 78%
    08:00 +11°C° 0 mm 6 mps 749 mmHg 77%
    09:00 +13°C° 0 mm 6 mps 750 mmHg 70%
    10:00 +15°C° 0 mm 6 mps 750 mmHg 64%
    11:00 +16°C° 0 mm 6 mps 750 mmHg 57%
    12:00 +16°C° 0 mm 5 mps 749 mmHg 55%
    13:00 +17°C° 0 mm 5 mps 749 mmHg 53%
    14:00 +19°C° 0 mm 5 mps 749 mmHg 50%
    15:00 +17°C° 0 mm 5 mps 749 mmHg 53%
    16:00 +17°C° 0 mm 4 mps 749 mmHg 55%
    17:00 +15°C° 0 mm 4 mps 748 mmHg 58%
    18:00 +14°C° 0 mm 3 mps 749 mmHg 61%
    19:00 +13°C° 0 mm 3 mps 749 mmHg 65%
    20:00 +13°C° 0 mm 3 mps 749 mmHg 69%
    21:00 +13°C° 0 mm 2 mps 749 mmHg 69%
    22:00 +13°C° 0 mm 2 mps 749 mmHg 69%
    23:00 +12°C° 0 mm 2 mps 749 mmHg 69%

    23 October, Tuesday

    Time Temperature Precipitation Wind Pressure Humidity
    00:00 +12°C° 0 mm 2 mps 748 mmHg 68%
    01:00 +11°C° 0 mm 3 mps 748 mmHg 66%
    02:00 +10°C° 0 mm 3 mps 748 mmHg 65%
    03:00 +10°C° 0 mm 3 mps 748 mmHg 65%
    04:00 +10°C° 0 mm 3 mps 748 mmHg 64%
    05:00 +9°C° 0 mm 3 mps 748 mmHg 64%
    06:00 +10°C° 0 mm 3 mps 748 mmHg 62%
    07:00 +10°C° 0 mm 3 mps 748 mmHg 59%
    08:00 +11°C° 0 mm 3 mps 748 mmHg 57%
    09:00 +12°C° 0 mm 3 mps 748 mmHg 53%
    10:00 +14°C° 0 mm 3 mps 748 mmHg 49%
    11:00 +17°C° 0 mm 3 mps 748 mmHg 45%
    12:00 +17°C° 0 mm 3 mps 748 mmHg 44%
    13:00 +18°C° 0 mm 3 mps 747 mmHg 44%
    14:00 +18°C° 0 mm 3 mps 747 mmHg 43%
    15:00 +17°C° 0 mm 3 mps 746 mmHg 47%
    16:00 +17°C° 0 mm 3 mps 746 mmHg 51%
    17:00 +16°C° 0 mm 3 mps 746 mmHg 54%
    18:00 +14°C° 0 mm 3 mps 746 mmHg 59%
    19:00 +15°C° 0 mm 2 mps 746 mmHg 64%
    20:00 +14°C° 0 mm 2 mps 746 mmHg 69%
    21:00 +14°C° 0 mm 2 mps 746 mmHg 71%
    22:00 +14°C° 0 mm 2 mps 746 mmHg 73%
    23:00 +14°C° 0 mm 1 mps 745 mmHg 75%

    24 October, Wednesday

    Time Temperature Precipitation Wind Pressure Humidity
    00:00 +13°C° 0 mm 2 mps 745 mmHg 75%
    01:00 +13°C° 0 mm 2 mps 745 mmHg 76%
    02:00 +13°C° 0 mm 2 mps 744 mmHg 76%
    03:00 +13°C° 0 mm 2 mps 744 mmHg 76%
    04:00 +12°C° 0 mm 2 mps 744 mmHg 76%
    05:00 +11°C° 0 mm 3 mps 743 mmHg 75%
    06:00 +11°C° 0 mm 3 mps 743 mmHg 72%
    07:00 +12°C° 0 mm 3 mps 743 mmHg 68%
    08:00 +12°C° 0 mm 3 mps 743 mmHg 65%
    09:00 +13°C° 0.1 mm 3 mps 742 mmHg 61%
    10:00 +13°C° 0.1 mm 3 mps 742 mmHg 58%
    11:00 +14°C° 0.1 mm 4 mps 741 mmHg 54%
    12:00 +14°C° 0.2 mm 4 mps 741 mmHg 53%
    13:00 +14°C° 0.2 mm 4 mps 740 mmHg 53%
    14:00 +15°C° 0.2 mm 4 mps 740 mmHg 52%
    15:00 +14°C° 0.1 mm 3 mps 739 mmHg 53%
    16:00 +14°C° 0.1 mm 3 mps 739 mmHg 53%
    17:00 +14°C° 0.1 mm 3 mps 738 mmHg 53%
    18:00 +13°C° 0 mm 4 mps 738 mmHg 52%
    19:00 +12°C° 0 mm 5 mps 738 mmHg 51%
    20:00 +10°C° 0 mm 6 mps 738 mmHg 50%
    21:00 +10°C° 0 mm 7 mps 738 mmHg 53%
    22:00 +10°C° 0 mm 8 mps 738 mmHg 56%
    23:00 +10°C° 0 mm 9 mps 738 mmHg 59%

    25 October, Thursday

    Time Temperature Precipitation Wind Pressure Humidity
    00:00 +10°C° 0 mm 9 mps 738 mmHg 60%
    01:00 +10°C° 0 mm 9 mps 738 mmHg 61%
    02:00 +8°C° 0 mm 9 mps 738 mmHg 61%
    03:00 +9°C° 0.1 mm 8 mps 739 mmHg 63%
    04:00 +9°C° 0.1 mm 7 mps 740 mmHg 64%
    05:00 +10°C° 0.1 mm 6 mps 740 mmHg 66%
    06:00 +9°C° 0 mm 6 mps 741 mmHg 63%
    07:00 +9°C° 0 mm 6 mps 742 mmHg 61%
    08:00 +8°C° 0 mm 6 mps 742 mmHg 58%
    09:00 +10°C° 0 mm 6 mps 743 mmHg 50%
    10:00 +11°C° 0 mm 6 mps 743 mmHg 42%
    11:00 +13°C° 0 mm 6 mps 744 mmHg 34%
    12:00 +14°C° 0 mm 6 mps 744 mmHg 32%
    13:00 +14°C° 0 mm 6 mps 744 mmHg 31%
    14:00 +15°C° 0 mm 6 mps 744 mmHg 29%
    15:00 +14°C° 0 mm 5 mps 745 mmHg 31%
    16:00 +14°C° 0 mm 4 mps 745 mmHg 33%
    17:00 +13°C° 0 mm 3 mps 745 mmHg 34%
    18:00 +13°C° 0 mm 2 mps 746 mmHg 36%
    19:00 +12°C° 0 mm 2 mps 746 mmHg 37%
    20:00 +11°C° 0 mm 1 mps 747 mmHg 39%
    21:00 +11°C° 0 mm 1 mps 747 mmHg 40%
    22:00 +11°C° 0 mm 1 mps 748 mmHg 42%
    23:00 +10°C° 0 mm 1 mps 748 mmHg 43%
    Show more